Tracking 27086 objects as of 22-Mar-2023
HD Live streaming from Space Station
objects crossing your sky now

STARLINK-3795

Track STARLINK-3795 now!
10-day predictions
STARLINK-3795 is classified as:


NORAD ID: 52264
Int'l Code: 2022-041D
Perigee: 546.0 km
Apogee: 547.7 km
Inclination: 53.2 °
Period: 95.4 minutes
Semi major axis: 6917 km
RCS: Unknown
Launch date: April 21, 2022
Source: United States (US)
Launch site: AIR FORCE EASTERN TEST RANGE (AFETR)
Your satellite tracking list
Your tracking list is empty




NASA's NSSDC Master Catalog

Two Line Element Set (TLE):
1 52264U 22041D   23080.88819206  .00003299  00000-0  22521-3 0  9991
2 52264  53.2146 294.4997 0001214  82.2675 277.8454 15.08850144 50743
Source of the keplerian elements: AFSPC